This is the latest recevied weather packets stored in our database for station/object LA3SP-1. If no packets are shown the sender has not sent any weather packets the latest 10 day(s).
| Time | Temp. | Humidity | Pressure | Rain* | Wind** | Luminosity | Snow |
|---|---|---|---|---|---|---|---|
| 1778077494 | 5° C | 46% | 1007.2 hPa | 0 mm | - | - | - |
| 1778076893 | 5° C | 45% | 1007.3 hPa | 0 mm | - | - | - |
| 1778075691 | 5° C | 41% | 1007.1 hPa | 0 mm | - | - | - |
| 1778075089 | 5° C | 41% | 1007.2 hPa | 0 mm | - | - | - |
| 1778074487 | 6.11° C | 41% | 1007 hPa | 0 mm | - | - | - |
| 1778073886 | 7.78° C | 40% | 1007.2 hPa | 0 mm | - | - | - |
| 1778073285 | 8.33° C | 44% | 1007.1 hPa | 0 mm | - | - | - |
| 1778072683 | 7.78° C | 45% | 1007.2 hPa | 0 mm | - | - | - |
| 1778072082 | 6.11° C | 46% | 1007.1 hPa | 0 mm | - | - | - |
| 1778070879 | 4.44° C | 44% | 1007.1 hPa | 0 mm | - | - | - |
| 1778070278 | 5.56° C | 42% | 1007.2 hPa | 0 mm | - | - | - |
| 1778069676 | 7.78° C | 42% | 1007.2 hPa | 0 mm | - | - | - |
| 1778069075 | 7.22° C | 43% | 1007.1 hPa | 0 mm | - | - | - |
| 1778067873 | 6.67° C | 44% | 1007.1 hPa | 0 mm | - | - | - |
| 1778067271 | 6.67° C | 44% | 1007.1 hPa | 0 mm | - | - | - |
| 1778066669 | 7.22° C | 42% | 1007.1 hPa | 0 mm | - | - | - |
| 1778066068 | 6.67° C | 45% | 1007.1 hPa | 0 mm | - | - | - |
| 1778065467 | 6.67° C | 45% | 1007.2 hPa | 0 mm | - | - | - |
| 1778064865 | 7.22° C | 43% | 1007.2 hPa | 0 mm | - | - | - |
| 1778064264 | 7.78° C | 45% | 1007 hPa | 0 mm | - | - | - |
| 1778063061 | 7.22° C | 46% | 1006.9 hPa | 0 mm | - | - | - |
| 1778062460 | 6.67° C | 48% | 1007 hPa | 0 mm | - | - | - |
| 1778061858 | 5.56° C | 49% | 1007 hPa | 0 mm | - | - | - |
| 1778061257 | 4.44° C | 48% | 1006.8 hPa | 0 mm | - | - | - |
| 1778060655 | 4.44° C | 51% | 1007.1 hPa | 0 mm | - | - | - |
* Rain latest 24 hours (hover to see other rain measurements)
** Current wind speed in m/s (hover to see current wind gust speed)